n

Club ULM Alpes Mans'Ailes

Base ULM de Piacé (72)

Météo:

Données PiouPiou :  ICI

METAR (Le Mans):

METAR de LFRM (émis le lundi 26 juin 2017 18:30 UTC):
LFRM 261830Z AUTO 11005KT 080V140 9999 ///CB 22/18 Q1009 TEMPO -TSRA

Coordonées GPS :

Lattitude : 48° 16' 16" Nord
Longitude : 00° 06' 15" Est
Altitude : 305 ft (93 m)
[11hPa]

Le Président

     Mickaël RIBOT


  Pour tout renseignement sur les baptêmes; contactez M. LECOURT -> 06.83.16.36.73 <-

  ou posez votre question par mail : -> ICI <-


    A la Une    

Retours d'EXpérence ULM


La FFPLUM met à disposition les REX

Les REX sont anonymes et permettent à la fédération de cibler les problèmes rencontrés et étudier les accidents survenus.

Déclarez votre propre expérience au REX.

Consultez les fiches REX qui ont été validées et publiées.


Alpes Mans'Ailes
Copyright "Alpes Mans'Ailes" 2017, tous droits réservés
Il y a eu 5385 visiteurs sur le site depuis le 01/05/2017